[[{"header":{"parameterUnit":"m.s-1","parameterCategory":1,"la1":30.2991,"la2":30.254,"lo1":-89.0895,"lo2":-89.0444,"dy":0.0017,"dx":0.0017,"nx":28,"ny":28,"refTime":"2025-04-10T09:00:00:Z","depth":0,"parameterNumber":2,"parameterNumberName":"U-component_of_WINDS"},"data":[0,0,0,0,0,0,0,0,0,0,0,0,0,0,0,0,0,0,0,0,0,0,0,0,0,0,0,0,0,0,0,0,0,0,0,0,0,0,0,0,0,0,0,0,0,0,0,0,0,0,0,0,0,0,0,0,0,0,2.6552,2.6552,0,2.6608,2.6608,2.6609,2.6595,2.6593,2.6592,2.6591,2.6656,2.6658,2.6661,0,0,0,0,0,0,0,0,0,0,0,0,0,2.6438,2.6441,2.6552,2.6552,2.6553,2.6608,2.6609,2.6609,2.6595,2.6593,2.6592,2.6591,2.6655,2.6658,2.6661,0,0,0,0,0,0,0,0,0,0,0,0,0,2.6491,2.6441,2.6551,2.6552,2.6553,2.6608,2.6609,2.661,2.6595,2.6593,2.6592,2.659,2.6654,2.6658,2.6662,2.6722,0,0,2.6675,2.6676,0,0,0,0,0,0,0,0,2.6488,2.6495,2.6551,2.6552,2.6553,2.6592,2.6592,2.6647,2.6595,2.6579,2.6591,2.6589,2.6636,2.6642,2.6656,2.6725,2.6727,2.6675,2.6677,2.6679,2.668,0,0,0,0,0,0,0,2.6484,2.6492,2.6574,2.6552,2.6553,2.6552,2.6557,2.6603,2.6617,2.658,2.658,2.6586,2.6637,2.6652,2.6658,2.6728,2.6675,2.6679,2.6681,2.6683,2.685,2.6852,0,0,0,0,0,0,2.6479,2.6489,2.6572,2.6576,2.6515,2.6555,2.6561,2.6582,2.6616,2.662,2.6587,2.6585,2.6646,2.6653,2.666,2.6733,2.6679,2.6683,2.6686,2.6848,2.685,2.6853,0,0,0,0,0,0,2.6476,2.6486,2.657,2.6532,2.6543,2.6559,2.6582,2.6584,2.6599,2.6621,2.6625,2.66,2.6645,2.6654,2.6706,2.6735,2.6685,2.6689,2.6846,2.6849,2.6851,2.688,0,0,0,0,0,0,2.6473,2.6486,2.6507,2.6533,2.6545,2.6613,2.6583,2.6586,2.6606,2.6603,2.6635,2.6638,2.6644,2.67,2.671,2.674,2.6692,2.6843,2.6847,2.6851,2.6876,2.6883,2.6889,0,0,0,0,0,2.6469,2.6514,2.6508,2.6518,2.6571,2.6615,2.6622,2.6626,2.6608,2.6631,2.6645,2.6637,2.673,2.6706,2.6717,2.6748,2.6842,2.6846,2.685,2.6873,2.6882,2.6889,0,0,0,0,0,0,2.6493,2.6517,2.6511,2.6565,2.6588,2.6612,2.6641,2.6635,2.6665,2.6662,2.6668,2.6675,2.6729,2.6744,2.6716,2.6809,2.6784,2.679,2.6797,2.6805,2.6812,2.6808,2.6695,0,0,0,0,0,2.6504,2.6535,2.6555,2.6601,2.6613,2.6625,2.6644,2.6645,2.667,2.668,2.6698,2.6725,2.676,2.6783,2.6817,2.6878,2.6886,2.6905,2.6912,2.6917,2.6923,2.6958,2.6968,2.6867,2.6867,2.6867,0,0,2.6528,2.6545,2.6565,2.6606,2.6624,2.6659,2.6633,2.6671,2.6697,2.6687,2.6737,2.6751,2.6781,2.6838,2.6864,2.6852,2.6953,2.6923,2.6926,2.693,2.6964,2.6973,2.6982,2.687,2.6869,2.6869,0,0,2.659,2.6605,2.6645,2.6663,2.669,2.6697,2.6707,2.6733,2.6741,2.6791,2.6784,2.6817,2.6877,2.6899,2.6918,2.6988,2.6982,2.6999,2.7033,2.7067,2.7075,2.7082,2.7108,2.7118,2.7005,2.7005,2.7005,0,2.6618,2.6667,2.6667,2.6705,2.6724,2.6714,2.6756,2.6774,2.6812,2.6826,2.6812,2.6887,2.6907,2.6969,2.6986,2.7001,2.7015,2.6996,2.7073,2.708,2.7087,2.7112,2.7122,2.7007,2.7006,2.7006,2.7006,0,2.67,2.6734,2.6764,2.6797,2.682,2.686,2.6869,2.6892,2.6891,2.6901,2.6953,2.6975,2.7014,2.7029,2.7029,2.7092,2.7084,2.7071,2.7046,2.7098,2.7123,2.7132,2.7009,2.7009,2.7008,2.7008,0,0,2.6779,2.6812,2.6823,2.6839,2.6867,2.6895,2.6935,2.697,2.6991,2.7017,2.7052,2.7103,2.7092,2.7113,2.7116,2.7146,2.7201,2.713,2.7131,2.7144,2.7274,2.7284,2.7295,2.7197,2.7199,2.7201,2.7272,0,2.6845,2.6912,2.6914,2.6978,2.7011,2.7002,2.7037,2.706,2.707,2.7101,2.7114,2.715,2.7131,2.7144,2.7173,2.7188,2.7228,2.7183,2.7233,2.7235,2.7227,2.7308,2.7319,2.7385,2.7281,2.7283,2.7284,0,2.693,2.6956,2.7022,2.7046,2.706,2.7092,2.7125,2.7154,2.718,2.7186,2.721,2.7208,2.7252,2.7224,2.7285,2.7255,2.7275,2.7286,2.7289,2.7295,2.7263,2.7318,2.7406,2.7417,2.7299,2.7297,2.7296,0,2.6983,2.7035,2.7082,2.7095,2.7124,2.7147,2.716,2.7184,2.7206,2.7235,2.725,2.7285,2.7304,2.7333,2.7342,2.732,2.7403,2.7376,2.7411,2.7411,2.7431,2.743,2.7525,2.7441,2.7441,2.7441,2.7441,0,2.7057,2.7098,2.7106,2.7135,2.7181,2.7184,2.7231,2.7243,2.7265,2.7297,2.7292,2.7324,2.7333,2.7366,2.7374,2.7424,2.7433,2.7441,2.7443,2.7442,2.7441,2.7457,2.7453,2.7444,2.7443,2.7442,2.7442,0,2.7124,2.7131,2.7181,2.7204,2.7211,2.7244,2.7265,2.7294,2.7303,2.7345,2.7355,2.7371,2.741,2.7421,2.7469,2.7474,2.7534,2.7531,2.7524,2.7525,2.756,2.7557,2.767,2.7686,2.7591,2.7591,2.7592,0,2.7172,2.7203,2.7228,2.7248,2.7262,2.7296,2.7317,2.7321,2.7344,2.7376,2.7401,2.744,2.747,2.7534,2.7552,2.7589,2.7587,2.7624,2.7593,2.7592,2.759,2.7588,2.7592,2.7631,2.7632,2.7633,2.7633,0,2.7255,2.7257,2.7286,2.7317,2.7342,2.7367,2.7392,2.7409,2.7417,2.7443,2.7482,2.7506,2.7554,2.7593,2.763,2.7647,2.7643,2.7643,2.7653,2.7654,2.7649,2.7654,2.7542,2.7641,2.764,2.7639,2.7639,2.7639,2.7315,2.7343,2.7365,2.7398,2.7416,2.7439,2.7467,2.7479,2.7511,2.7549,2.755,2.7593,2.762,2.7669,2.7687,2.7723,2.7712,2.7727,2.7731,2.7735,2.7738,2.7642,2.7729,2.7729,2.7729,2.7729,2.7729,0,2.74,2.7413,2.7444,2.7477,2.7503,2.7494,2.752,2.7544,2.7581,2.7605,2.7635,2.7681,2.7718,2.7738,2.7776,2.78,2.78,2.7811,2.781,2.7814,2.7745,2.7733,2.7811,2.7811,2.7811,2.7811,2.7811,2.7811,2.7447,2.7493,2.7498,2.7554,2.7568,2.7608,2.7624,2.7646,2.7665,2.7715,2.7745,2.7757,2.778,2.782,2.7854,2.7859,2.7875,2.7887,2.7891,2.7827,2.7819,2.7811,2.7799,2.789,2.789,2.7957,2.7958,2.7958]},{"header":{"parameterUnit":"m.s-1","parameterCategory":1,"la1":30.2991,"la2":30.254,"lo1":-89.0895,"lo2":-89.0444,"dy":0.0017,"dx":0.0017,"nx":28,"ny":28,"refTime":"2025-04-10T09:00:00:Z","depth":0,"parameterNumber":3,"parameterNumberName":"V-component_of_WINDS"},"data":[0,0,0,0,0,0,0,0,0,0,0,0,0,0,0,0,0,0,0,0,0,0,0,0,0,0,0,0,0,0,0,0,0,0,0,0,0,0,0,0,0,0,0,0,0,0,0,0,0,0,0,0,0,0,0,0,0,0,-0.5005,-0.5007,0,-0.5131,-0.5132,-0.5134,-0.5183,-0.5183,-0.5182,-0.5182,-0.5314,-0.5317,-0.5321,0,0,0,0,0,0,0,0,0,0,0,0,0,-0.4811,-0.4815,-0.5005,-0.5007,-0.5008,-0.5131,-0.5132,-0.5134,-0.5183,-0.5183,-0.5182,-0.5182,-0.5313,-0.5317,-0.5322,0,0,0,0,0,0,0,0,0,0,0,0,0,-0.4912,-0.4816,-0.5005,-0.5047,-0.5052,-0.513,-0.5133,-0.5135,-0.5183,-0.5183,-0.5182,-0.5182,-0.5311,-0.5317,-0.5322,-0.5368,0,0,-0.534,-0.5342,0,0,0,0,0,0,0,0,-0.4906,-0.4919,-0.5039,-0.5044,-0.505,-0.5141,-0.5113,-0.5213,-0.5183,-0.5134,-0.5182,-0.5181,-0.5257,-0.5267,-0.5292,-0.5375,-0.538,-0.534,-0.5344,-0.5346,-0.5348,0,0,0,0,0,0,0,-0.4899,-0.4914,-0.5055,-0.5041,-0.5048,-0.5061,-0.5075,-0.5132,-0.5197,-0.5138,-0.5142,-0.5156,-0.526,-0.5286,-0.5295,-0.5382,-0.534,-0.5345,-0.5349,-0.5351,-0.5511,-0.5512,0,0,0,0,0,0,-0.4885,-0.4908,-0.5051,-0.5059,-0.4975,-0.5065,-0.5081,-0.5112,-0.5196,-0.5208,-0.5156,-0.5158,-0.5277,-0.5289,-0.53,-0.5361,-0.5346,-0.5352,-0.5355,-0.5511,-0.5512,-0.5512,0,0,0,0,0,0,-0.488,-0.4897,-0.5046,-0.4984,-0.5004,-0.5069,-0.5104,-0.5115,-0.5141,-0.521,-0.5222,-0.5171,-0.5277,-0.5292,-0.5351,-0.5366,-0.5354,-0.536,-0.551,-0.5511,-0.5512,-0.5482,0,0,0,0,0,0,-0.4875,-0.4895,-0.4912,-0.4984,-0.5007,-0.5094,-0.5105,-0.5118,-0.5151,-0.5154,-0.5227,-0.5239,-0.5277,-0.5342,-0.5357,-0.5374,-0.5364,-0.5509,-0.551,-0.5512,-0.5482,-0.5482,-0.5482,0,0,0,0,0,-0.4867,-0.4899,-0.4913,-0.493,-0.503,-0.5094,-0.5108,-0.5151,-0.5152,-0.517,-0.5215,-0.5236,-0.5362,-0.5348,-0.5365,-0.5384,-0.5508,-0.551,-0.5512,-0.5482,-0.5482,-0.5482,0,0,0,0,0,0,-0.4827,-0.4909,-0.4925,-0.4981,-0.503,-0.5102,-0.5127,-0.5149,-0.52,-0.5201,-0.5253,-0.5269,-0.5325,-0.536,-0.5343,-0.5434,-0.5437,-0.5442,-0.5408,-0.5409,-0.5409,-0.54,-0.5369,0,0,0,0,0,-0.4825,-0.4869,-0.4938,-0.4981,-0.5005,-0.5061,-0.5091,-0.512,-0.5174,-0.5195,-0.5244,-0.5296,-0.5348,-0.538,-0.5431,-0.5487,-0.5505,-0.5509,-0.5509,-0.5509,-0.5513,-0.5547,-0.555,-0.5518,-0.5518,-0.5518,0,0,-0.482,-0.487,-0.4895,-0.4974,-0.5016,-0.5062,-0.5079,-0.5126,-0.5162,-0.5203,-0.5262,-0.5299,-0.5361,-0.5419,-0.5448,-0.5451,-0.5525,-0.5511,-0.551,-0.5515,-0.5549,-0.5552,-0.5555,-0.552,-0.5519,-0.5519,0,0,-0.4835,-0.4877,-0.4918,-0.4959,-0.5022,-0.506,-0.5069,-0.5139,-0.5165,-0.5225,-0.5257,-0.5301,-0.5388,-0.5431,-0.5465,-0.5498,-0.5521,-0.5514,-0.5514,-0.5547,-0.5549,-0.5552,-0.5565,-0.5569,-0.5517,-0.5517,-0.5517,0,-0.4822,-0.4891,-0.4936,-0.4982,-0.5017,-0.5056,-0.5098,-0.5137,-0.5213,-0.5237,-0.5239,-0.5351,-0.5395,-0.5465,-0.5473,-0.5498,-0.5513,-0.5505,-0.5545,-0.5548,-0.5551,-0.5564,-0.5569,-0.5516,-0.5516,-0.5516,-0.5516,0,-0.4873,-0.492,-0.4946,-0.5018,-0.5056,-0.51,-0.5153,-0.5186,-0.5212,-0.525,-0.5311,-0.5366,-0.543,-0.5449,-0.5475,-0.5523,-0.5523,-0.5534,-0.5539,-0.5552,-0.5565,-0.5571,-0.5514,-0.5515,-0.5515,-0.5515,0,0,-0.4865,-0.4962,-0.4971,-0.5005,-0.5078,-0.5117,-0.5163,-0.5225,-0.5253,-0.5305,-0.5347,-0.542,-0.5432,-0.547,-0.5501,-0.553,-0.5555,-0.5539,-0.5541,-0.554,-0.5613,-0.5605,-0.561,-0.557,-0.5571,-0.5572,-0.5608,0,-0.4891,-0.4975,-0.5017,-0.5084,-0.5129,-0.5168,-0.5209,-0.5259,-0.5296,-0.5342,-0.5384,-0.5436,-0.5446,-0.547,-0.55,-0.5545,-0.557,-0.5543,-0.5611,-0.5613,-0.5595,-0.5616,-0.5607,-0.5638,-0.5614,-0.5615,-0.5615,0,-0.4931,-0.4983,-0.5053,-0.5123,-0.5143,-0.5179,-0.524,-0.5283,-0.5341,-0.5367,-0.5409,-0.5441,-0.5493,-0.5493,-0.5568,-0.5548,-0.5579,-0.5606,-0.5608,-0.5617,-0.5615,-0.5626,-0.5649,-0.5654,-0.5624,-0.5623,-0.5623,0,-0.492,-0.5007,-0.5061,-0.5089,-0.517,-0.5195,-0.5231,-0.5288,-0.5323,-0.5377,-0.5401,-0.546,-0.5492,-0.5538,-0.5586,-0.5581,-0.5656,-0.566,-0.568,-0.5679,-0.5694,-0.5693,-0.5723,-0.5712,-0.5712,-0.5712,-0.5712,0,-0.4945,-0.4987,-0.5057,-0.509,-0.514,-0.5189,-0.5236,-0.5275,-0.5326,-0.5369,-0.5407,-0.5446,-0.5506,-0.5553,-0.5591,-0.5648,-0.5662,-0.5685,-0.5695,-0.5682,-0.5679,-0.5703,-0.5702,-0.5714,-0.5713,-0.5713,-0.5713,0,-0.494,-0.4989,-0.5051,-0.5123,-0.5142,-0.5175,-0.5238,-0.5273,-0.5313,-0.5366,-0.5382,-0.5444,-0.5503,-0.5554,-0.5631,-0.5657,-0.5715,-0.5727,-0.5695,-0.57,-0.5718,-0.5716,-0.5766,-0.5775,-0.5757,-0.5757,-0.5757,0,-0.4953,-0.4986,-0.5062,-0.5093,-0.5128,-0.5177,-0.5213,-0.5263,-0.5299,-0.5369,-0.5396,-0.5457,-0.5508,-0.56,-0.5653,-0.5713,-0.5727,-0.574,-0.5736,-0.5723,-0.5728,-0.5726,-0.573,-0.574,-0.574,-0.574,-0.574,0,-0.497,-0.4993,-0.5043,-0.5101,-0.5143,-0.5192,-0.5242,-0.5265,-0.5326,-0.5365,-0.5424,-0.5464,-0.5543,-0.5604,-0.567,-0.5708,-0.5735,-0.574,-0.5749,-0.5736,-0.5717,-0.5729,-0.5696,-0.5739,-0.5739,-0.5739,-0.5739,-0.5739,-0.4976,-0.5008,-0.5067,-0.5121,-0.5164,-0.521,-0.5247,-0.5291,-0.5341,-0.5409,-0.5436,-0.5497,-0.5557,-0.5649,-0.5687,-0.5737,-0.5742,-0.5753,-0.5756,-0.5758,-0.5757,-0.5709,-0.5749,-0.5749,-0.5749,-0.5749,-0.5749,0,-0.4996,-0.5036,-0.5086,-0.5155,-0.5198,-0.5218,-0.5275,-0.5311,-0.5364,-0.5417,-0.5467,-0.5536,-0.5596,-0.5654,-0.5717,-0.5746,-0.576,-0.5761,-0.5759,-0.5768,-0.5748,-0.5735,-0.5748,-0.5748,-0.5748,-0.5748,-0.5748,-0.5748,-0.5012,-0.5068,-0.5098,-0.5176,-0.5216,-0.5275,-0.5306,-0.535,-0.5393,-0.5468,-0.5518,-0.5555,-0.5611,-0.5679,-0.5735,-0.5751,-0.5773,-0.577,-0.579,-0.577,-0.5769,-0.5769,-0.5757,-0.5774,-0.5774,-0.5806,-0.5806,-0.5806]}]]